Regional Weather Roundup
Issued by NWS Cleveland, OH

Home | Current Version | Previous Version | Graphics & Text | Print | Product List | Glossary On
Versions: 1 2 3 4 5 6 7 8 9 10 11 12 13 14 15 16 17 18 19 20 21 22 23 24 25 26 27 28 29 30 31 32 33 34 35 36 37 38 39 40 41 42 43 44 45 46 47 48 49 50
000
ASUS41 KCLE 281610
RWRCLE
OHIO REGIONAL WEATHER ROUNDUP
NATIONAL WEATHER SERVICE CLEVELAND, OH
1100 AM EST SAT FEB 28 2015

NOTE: "FAIR" INDICATES FEW OR NO CLOUDS BELOW 12,000 FEET WITH NO
SIGNIFICANT WEATHER AND/OR OBSTRUCTIONS TO VISIBILITY.

OHZ001>008-015>018-024>027-034-035-043-044-281700-
   NORTHWEST OHIO

CITY           SKY/WX    TMP DP  RH WIND       PRES   REMARKS
DEFIANCE       SUNNY     15   3  59 CALM      30.76F
FINDLAY        SUNNY     13  -1  54 SE5       30.75S WCI   5
TOLEDO EXPRESS SUNNY     15   2  56 S6        30.76F WCI   6
TOLEDO EXEC    SUNNY     12   1  61 S5        30.79S WCI   4
LIMA           SUNNY     17   0  47 SE10      30.72F WCI   5
$$

OHZ009>014-019>023-028>033-038-089-281700-
   NORTHEAST OHIO

CITY           SKY/WX    TMP DP  RH WIND       PRES   REMARKS
CLE-HOPKINS    PTSUNNY   18   1  47 CALM      30.80F
CLE-LAKEFRONT  SUNNY     15   2  56 SW5       30.79S WCI   8
CUY CO. ARPT   PTSUNNY   23   3  42 CALM      30.78R
LORAIN-ELYRIA  SUNNY      9   1  70 CALM      30.78S
ASHTABULA      SUNNY     13  -1  54 S5        30.77S WCI   5
AKRON-CANTON   MOSUNNY   15  -5  40 VRB7      30.74S WCI   5
WOOSTER        SUNNY     12  -1  56 SE7       30.75S WCI   1
MANSFIELD      SUNNY     14  -2  49 SE10      30.71F WCI   1
YOUNGSTOWN     PTSUNNY   13   0  56 E7        30.74F WCI   3
$$

OHZ042-051>053-060>062-070>072-077>081-281700-
  SOUTHWEST OHIO

CITY           SKY/WX    TMP DP  RH WIND       PRES   REMARKS
CINC-COVINGTON PTSUNNY   19   4  51 E8        30.70F WCI   9
CINC-LUNKEN    PTSUNNY   21   5  50 VRB5      30.76F WCI  15
HAMILTON       CLOUDY    19   3  49 E7        30.75F WCI  10
DAYTON         CLOUDY    17   1  49 SE9       30.73R WCI   6
WRIGHT-PAT AFB CLOUDY    17  -1  43 SE8       30.74S WCI   7
DAYTON GENERAL CLOUDY    17   0  47 SE12      30.71S WCI   4
WILMINGTON     MOSUNNY   14   1  56 E3        30.71S
$$

OHZ036-037-039>041-045>050-054>059-063>069-073>076-082>088-281700-
  CENTRAL AND SOUTHEAST OHIO

CITY           SKY/WX    TMP DP  RH WIND       PRES   REMARKS
COLUMBUS       MOSUNNY   17  -1  45 SE7       30.75S WCI   8
OSU AIRPORT    SUNNY     17  -2  43 SE6       30.73F WCI   9
BOLTON FIELD   MOSUNNY   16   1  53 E5        30.76R WCI   9
RICKENBACK AFB SUNNY     16   3  56 E5        30.75F WCI   9
NEWARK         SUNNY     18   1  47 CALM      30.74F
MARION         SUNNY     14  -1  51 SE9       30.73F WCI   2
LANCASTER      PTSUNNY   19   3  49 CALM      30.74F
ZANESVILLE     SUNNY     18   0  45 SE5       30.75S WCI  11
NEW PHILLY     SUNNY     19   2  47 CALM      30.77F
$$


USA.gov is the U.S. government's official web portal to all federal, state and local government web resources and services.